When you browse on this site, cookies collect data to enhance your experience and personalize the content and advertising you see.
Visit our Privacy Policy to learn more. By continuing to use the site, you agree to this use of cookies and data.
  • In Sweden
  • List of Countries
  • For 7 days
  • Water Temperature
  • Satellite Maps
  • Weather Map
  • Weather Widgets
  • user-avatar
    Login

    Hourly Weather Klagenfurt

    Today, 22 January, Tuesday

    Time Temperature Precipitation Wind Pressure Humidity
    00:00 -4°C° 0 mm 1 mps 687 mmHg 89%
    01:00 -4°C° 0 mm 1 mps 687 mmHg 89%
    02:00 -4°C° 0 mm 1 mps 687 mmHg 89%
    03:00 -4°C° 0 mm 1 mps 686 mmHg 89%
    04:00 -6°C° 0 mm 1 mps 686 mmHg 89%
    05:00 -6°C° 0 mm 1 mps 685 mmHg 89%
    06:00 -6°C° 0 mm 1 mps 685 mmHg 88%
    07:00 -6°C° 0 mm 1 mps 685 mmHg 88%
    08:00 -4°C° 0 mm 1 mps 684 mmHg 82%
    09:00 -3°C° 0 mm 1 mps 684 mmHg 75%
    10:00 -2°C° 0 mm 1 mps 684 mmHg 69%
    11:00 -1°C° 0 mm 1 mps 684 mmHg 64%
    12:00 0°C° 0 mm 1 mps 683 mmHg 60%
    13:00 +1°C° 0 mm 1 mps 682 mmHg 55%
    14:00 0°C° 0 mm 1 mps 682 mmHg 58%
    15:00 0°C° 0 mm 1 mps 681 mmHg 61%
    16:00 -1°C° 0 mm 1 mps 681 mmHg 64%
    17:00 -1°C° 0 mm 1 mps 680 mmHg 70%
    18:00 -2°C° 0 mm 1 mps 680 mmHg 75%
    19:00 -3°C° 0 mm 1 mps 680 mmHg 80%
    20:00 -3°C° 0.2 mm 1 mps 679 mmHg 82%
    21:00 -3°C° 0.2 mm 1 mps 679 mmHg 83%
    22:00 -3°C° 0.2 mm 1 mps 679 mmHg 85%
    23:00 -3°C° 0.2 mm 1 mps 678 mmHg 85%

    Tomorrow, 23 January, Wednesday

    Time Temperature Precipitation Wind Pressure Humidity
    00:00 -3°C° 0.2 mm 1 mps 678 mmHg 85%
    01:00 -4°C° 0.2 mm 1 mps 677 mmHg 85%
    02:00 -4°C° 0.3 mm 1 mps 677 mmHg 86%
    03:00 -4°C° 0.3 mm 1 mps 676 mmHg 86%
    04:00 -5°C° 0.3 mm 0 mps 676 mmHg 87%
    05:00 -4°C° 0.2 mm 1 mps 676 mmHg 86%
    06:00 -4°C° 0.2 mm 1 mps 675 mmHg 86%
    07:00 -4°C° 0.2 mm 1 mps 675 mmHg 86%
    08:00 -3°C° 0.2 mm 1 mps 675 mmHg 83%
    09:00 -3°C° 0.2 mm 1 mps 675 mmHg 81%
    10:00 -2°C° 0.2 mm 1 mps 675 mmHg 78%
    11:00 -2°C° 0.3 mm 1 mps 675 mmHg 78%
    12:00 -1°C° 0.3 mm 1 mps 675 mmHg 77%
    13:00 -1°C° 0.3 mm 1 mps 675 mmHg 77%
    14:00 -1°C° 0.2 mm 1 mps 675 mmHg 79%
    15:00 -1°C° 0.2 mm 1 mps 675 mmHg 80%
    16:00 -1°C° 0.2 mm 1 mps 675 mmHg 82%
    17:00 -2°C° 0.1 mm 1 mps 675 mmHg 85%
    18:00 -3°C° 0.1 mm 1 mps 675 mmHg 88%
    19:00 -3°C° 0.1 mm 1 mps 675 mmHg 91%
    20:00 -3°C° 0 mm 1 mps 676 mmHg 92%
    21:00 -4°C° 0 mm 1 mps 676 mmHg 92%
    22:00 -4°C° 0 mm 1 mps 676 mmHg 92%
    23:00 -4°C° 0 mm 1 mps 676 mmHg 92%

    Day after tomorrow, 24 January, Thursday

    Time Temperature Precipitation Wind Pressure Humidity
    00:00 -5°C° 0 mm 0 mps 677 mmHg 91%
    01:00 -5°C° 0 mm 0 mps 677 mmHg 91%
    02:00 -4°C° 0 mm 1 mps 677 mmHg 90%
    03:00 -4°C° 0 mm 1 mps 677 mmHg 90%
    04:00 -4°C° 0 mm 1 mps 677 mmHg 90%
    05:00 -6°C° 0 mm 1 mps 677 mmHg 89%
    06:00 -6°C° 0 mm 1 mps 677 mmHg 89%
    07:00 -6°C° 0 mm 1 mps 678 mmHg 88%
    08:00 -4°C° 0 mm 1 mps 678 mmHg 83%
    09:00 -3°C° 0 mm 1 mps 679 mmHg 78%
    10:00 -4°C° 0 mm 2 mps 679 mmHg 74%
    11:00 -3°C° 0 mm 2 mps 680 mmHg 71%
    12:00 -2°C° 0 mm 2 mps 680 mmHg 68%
    13:00 -1°C° 0 mm 2 mps 680 mmHg 64%
    14:00 -1°C° 0 mm 2 mps 680 mmHg 67%
    15:00 -2°C° 0 mm 2 mps 680 mmHg 70%
    16:00 0°C° 0 mm 1 mps 680 mmHg 72%
    17:00 -1°C° 0 mm 1 mps 680 mmHg 77%
    18:00 -2°C° 0 mm 1 mps 681 mmHg 81%
    19:00 -3°C° 0 mm 1 mps 681 mmHg 85%
    20:00 -3°C° 0 mm 1 mps 682 mmHg 85%
    21:00 -4°C° 0 mm 1 mps 682 mmHg 85%
    22:00 -4°C° 0 mm 1 mps 682 mmHg 85%
    23:00 -4°C° 0 mm 1 mps 682 mmHg 83%

    25 January, Friday

    Time Temperature Precipitation Wind Pressure Humidity
    00:00 -7°C° 0 mm 2 mps 682 mmHg 81%
    01:00 -7°C° 0 mm 2 mps 682 mmHg 80%
    02:00 -7°C° 0 mm 2 mps 682 mmHg 79%
    03:00 -7°C° 0 mm 2 mps 682 mmHg 78%
    04:00 -8°C° 0 mm 2 mps 682 mmHg 77%
    05:00 -8°C° 0 mm 2 mps 682 mmHg 77%
    06:00 -8°C° 0 mm 2 mps 683 mmHg 77%
    07:00 -7°C° 0 mm 1 mps 683 mmHg 76%
    08:00 -7°C° 0 mm 2 mps 683 mmHg 71%
    09:00 -5°C° 0 mm 2 mps 684 mmHg 66%
    10:00 -4°C° 0 mm 2 mps 684 mmHg 61%
    11:00 -3°C° 0 mm 2 mps 684 mmHg 58%
    12:00 -2°C° 0 mm 2 mps 684 mmHg 55%
    13:00 -1°C° 0 mm 2 mps 684 mmHg 51%
    14:00 -2°C° 0 mm 2 mps 684 mmHg 54%
    15:00 -2°C° 0 mm 2 mps 684 mmHg 57%
    16:00 -3°C° 0 mm 2 mps 684 mmHg 60%
    17:00 -4°C° 0 mm 2 mps 684 mmHg 64%
    18:00 -5°C° 0 mm 2 mps 684 mmHg 68%
    19:00 -7°C° 0 mm 2 mps 684 mmHg 71%
    20:00 -7°C° 0 mm 2 mps 684 mmHg 71%
    21:00 -7°C° 0 mm 2 mps 685 mmHg 70%
    22:00 -7°C° 0 mm 1 mps 685 mmHg 70%
    23:00 -7°C° 0 mm 1 mps 685 mmHg 69%

    26 January, Saturday

    Time Temperature Precipitation Wind Pressure Humidity
    00:00 -8°C° 0 mm 1 mps 685 mmHg 68%
    01:00 -8°C° 0 mm 1 mps 685 mmHg 66%
    02:00 -8°C° 0 mm 1 mps 684 mmHg 65%
    03:00 -8°C° 0 mm 1 mps 684 mmHg 63%
    04:00 -8°C° 0 mm 1 mps 684 mmHg 62%
    05:00 -8°C° 0 mm 1 mps 683 mmHg 60%
    06:00 -8°C° 0 mm 1 mps 683 mmHg 59%
    07:00 -9°C° 0 mm 1 mps 683 mmHg 58%
    08:00 -7°C° 0 mm 1 mps 683 mmHg 53%
    09:00 -5°C° 0 mm 0 mps 683 mmHg 49%
    10:00 -4°C° 0 mm 0 mps 683 mmHg 45%
    11:00 -2°C° 0 mm 0 mps 683 mmHg 42%
    12:00 -1°C° 0 mm 0 mps 682 mmHg 40%
    13:00 +1°C° 0 mm 0 mps 682 mmHg 37%
    14:00 +1°C° 0 mm 1 mps 681 mmHg 43%
    15:00 0°C° 0 mm 1 mps 681 mmHg 48%
    16:00 0°C° 0 mm 1 mps 680 mmHg 53%
    17:00 -1°C° 0 mm 1 mps 680 mmHg 57%
    18:00 -4°C° 0 mm 0 mps 679 mmHg 61%
    19:00 -5°C° 0 mm 0 mps 679 mmHg 65%
    20:00 -5°C° 0 mm 0 mps 679 mmHg 65%
    21:00 -5°C° 0 mm 0 mps 678 mmHg 65%
    22:00 -5°C° 0 mm 0 mps 678 mmHg 64%
    23:00 -5°C° 0 mm 0 mps 678 mmHg 63%

    27 January, Sunday

    Time Temperature Precipitation Wind Pressure Humidity
    00:00 -5°C° 0 mm 0 mps 677 mmHg 62%
    01:00 -5°C° 0 mm 0 mps 677 mmHg 61%
    02:00 -5°C° 0 mm 0 mps 676 mmHg 60%
    03:00 -5°C° 0 mm 0 mps 676 mmHg 58%
    04:00 -5°C° 0 mm 0 mps 676 mmHg 57%
    05:00 -5°C° 0 mm 0 mps 676 mmHg 56%
    06:00 -5°C° 0 mm 0 mps 675 mmHg 55%
    07:00 -5°C° 0 mm 0 mps 675 mmHg 54%
    08:00 -4°C° 0 mm 0 mps 676 mmHg 52%
    09:00 -3°C° 0 mm 0 mps 676 mmHg 50%
    10:00 -1°C° 0 mm 1 mps 676 mmHg 47%
    11:00 0°C° 0 mm 1 mps 676 mmHg 46%
    12:00 +1°C° 0 mm 1 mps 676 mmHg 44%
    13:00 +2°C° 0 mm 1 mps 676 mmHg 42%
    14:00 +1°C° 0 mm 1 mps 676 mmHg 48%
    15:00 +1°C° 0 mm 1 mps 676 mmHg 53%
    16:00 -1°C° 0 mm 0 mps 676 mmHg 59%
    17:00 -2°C° 0 mm 0 mps 676 mmHg 64%
    18:00 -3°C° 0 mm 0 mps 676 mmHg 69%
    19:00 -4°C° 0 mm 0 mps 676 mmHg 74%
    20:00 -4°C° 0 mm 0 mps 676 mmHg 74%
    21:00 -2°C° 0 mm 1 mps 676 mmHg 74%
    22:00 -2°C° 0 mm 1 mps 676 mmHg 75%
    23:00 -3°C° 0.2 mm 1 mps 676 mmHg 77%
    Show more